Time,TemperatureF,DewpointF,PressureIn,WindDirection,WindDirectionDegrees,WindSpeedMPH,WindSpeedGustMPH,Humidity,HourlyPrecipIn,Conditions,Clouds,dailyrainin,SolarRadiationWatts/m^2,SoftwareType,DateUTC
2013-09-28 00:09:00,51.4,49.0,30.26,SSE,155,2.0,4.0,90,0.00,,,0.00,0,weatherlink.com 1.10,2013-09-28 04:09:00,
2013-09-28 00:24:00,50.6,48.0,30.26,SSE,150,2.0,3.0,90,0.00,,,0.00,0,weatherlink.com 1.10,2013-09-28 04:24:00,
2013-09-28 00:39:00,50.9,48.0,30.25,SE,134,0.0,2.0,90,0.00,,,0.00,0,weatherlink.com 1.10,2013-09-28 04:39:00,
2013-09-28 00:54:00,50.6,48.0,30.26,NNE,22,1.0,1.0,90,0.00,,,0.00,0,weatherlink.com 1.10,2013-09-28 04:54:00,
2013-09-28 01:09:00,50.3,48.0,30.26,SSE,156,0.0,1.0,91,0.00,,,0.00,0,weatherlink.com 1.10,2013-09-28 05:09:00,
2013-09-28 01:24:00,50.1,48.0,30.26,WSW,257,0.0,1.0,91,0.00,,,0.00,0,weatherlink.com 1.10,2013-09-28 05:24:00,
2013-09-28 01:39:00,49.8,47.0,30.27,WSW,246,2.0,3.0,91,0.00,,,0.00,0,weatherlink.com 1.10,2013-09-28 05:39:00,
2013-09-28 01:54:00,50.3,48.0,30.27,SSW,206,1.0,3.0,91,0.00,,,0.00,0,weatherlink.com 1.10,2013-09-28 05:54:00,
2013-09-28 02:09:00,50.9,48.0,30.27,SSW,213,3.0,4.0,91,0.00,,,0.00,0,weatherlink.com 1.10,2013-09-28 06:09:00,
2013-09-28 02:24:00,50.8,48.0,30.27,WSW,247,0.0,4.0,90,0.00,,,0.00,0,weatherlink.com 1.10,2013-09-28 06:24:00,
2013-09-28 02:39:00,50.4,48.0,30.27,West,262,3.0,3.0,90,0.00,,,0.00,0,weatherlink.com 1.10,2013-09-28 06:39:00,
2013-09-28 02:54:00,50.0,47.0,30.27,SW,232,2.0,3.0,90,0.00,,,0.00,0,weatherlink.com 1.10,2013-09-28 06:54:00,
2013-09-28 03:09:00,50.0,47.0,30.27,South,178,0.0,2.0,90,0.00,,,0.00,0,weatherlink.com 1.10,2013-09-28 07:09:00,
2013-09-28 03:40:00,48.2,46.0,30.28,South,178,1.0,2.0,91,0.00,,,0.00,0,weatherlink.com 1.10,2013-09-28 07:40:00,
2013-09-28 03:55:00,47.1,45.0,30.29,SSE,159,1.0,2.0,91,0.00,,,0.00,0,weatherlink.com 1.10,2013-09-28 07:55:00,
2013-09-28 04:10:00,46.5,44.0,30.29,South,180,0.0,3.0,92,0.00,,,0.00,0,weatherlink.com 1.10,2013-09-28 08:10:00,
2013-09-28 04:25:00,46.8,45.0,30.29,SE,140,0.0,1.0,93,0.00,,,0.00,0,weatherlink.com 1.10,2013-09-28 08:25:00,
2013-09-28 04:40:00,47.2,45.0,30.28,SSE,163,1.0,2.0,93,0.00,,,0.00,0,weatherlink.com 1.10,2013-09-28 08:40:00,
2013-09-28 04:55:00,46.5,45.0,30.29,SSE,163,1.0,2.0,93,0.00,,,0.00,0,weatherlink.com 1.10,2013-09-28 08:55:00,
2013-09-28 05:10:00,46.8,45.0,30.29,SE,137,2.0,2.0,93,0.00,,,0.00,0,weatherlink.com 1.10,2013-09-28 09:10:00,
2013-09-28 05:25:00,46.3,44.0,30.29,SSE,152,0.0,2.0,93,0.00,,,0.00,0,weatherlink.com 1.10,2013-09-28 09:25:00,
2013-09-28 05:40:00,46.1,44.0,30.30,South,174,1.0,3.0,93,0.00,,,0.00,0,weatherlink.com 1.10,2013-09-28 09:40:00,
2013-09-28 05:55:00,45.8,44.0,30.30,SSE,151,2.0,3.0,93,0.00,,,0.00,0,weatherlink.com 1.10,2013-09-28 09:55:00,
2013-09-28 06:10:00,45.3,43.0,30.30,SSE,159,1.0,2.0,93,0.00,,,0.00,0,weatherlink.com 1.10,2013-09-28 10:10:00,
2013-09-28 06:25:00,45.5,44.0,30.30,SSE,158,2.0,3.0,94,0.00,,,0.00,0,weatherlink.com 1.10,2013-09-28 10:25:00,
2013-09-28 06:40:00,45.5,44.0,30.30,SSE,150,2.0,4.0,94,0.00,,,0.00,0,weatherlink.com 1.10,2013-09-28 10:40:00,
2013-09-28 06:55:00,46.0,44.0,30.31,SSE,163,2.0,4.0,94,0.00,,,0.00,0,weatherlink.com 1.10,2013-09-28 10:55:00,
2013-09-28 07:10:00,46.2,45.0,30.31,SSE,156,1.0,3.0,94,0.00,,,0.00,11,weatherlink.com 1.10,2013-09-28 11:10:00,
2013-09-28 07:25:00,46.8,45.0,30.31,SE,143,2.0,4.0,94,0.00,,,0.00,14,weatherlink.com 1.10,2013-09-28 11:25:00,
2013-09-28 07:40:00,46.6,45.0,30.31,SSE,156,2.0,4.0,93,0.00,,,0.00,18,weatherlink.com 1.10,2013-09-28 11:40:00,
2013-09-28 07:55:00,48.1,46.0,30.31,SSE,163,2.0,4.0,93,0.00,,,0.00,21,weatherlink.com 1.10,2013-09-28 11:55:00,
2013-09-28 08:10:00,49.5,47.0,30.32,SE,144,2.0,3.0,92,0.00,,,0.00,23,weatherlink.com 1.10,2013-09-28 12:10:00,
2013-09-28 08:25:00,50.5,48.0,30.32,SSE,158,2.0,2.0,90,0.00,,,0.00,25,weatherlink.com 1.10,2013-09-28 12:25:00,
2013-09-28 08:40:00,51.6,49.0,30.32,SSE,152,2.0,3.0,89,0.00,,,0.00,65,weatherlink.com 1.10,2013-09-28 12:40:00,
2013-09-28 08:55:00,53.2,50.0,30.32,SE,140,2.0,3.0,88,0.00,,,0.00,257,weatherlink.com 1.10,2013-09-28 12:55:00,
2013-09-28 09:10:00,54.8,51.0,30.32,SE,144,2.0,4.0,86,0.00,,,0.00,309,weatherlink.com 1.10,2013-09-28 13:10:00,
2013-09-28 09:25:00,57.3,52.0,30.32,SE,133,2.0,3.0,82,0.01,,,0.01,348,weatherlink.com 1.10,2013-09-28 13:25:00,
2013-09-28 09:40:00,58.6,53.0,30.32,SSE,161,2.0,7.0,81,0.01,,,0.01,383,weatherlink.com 1.10,2013-09-28 13:40:00,
2013-09-28 09:55:00,60.0,53.0,30.32,NW,323,0.0,3.0,77,0.01,,,0.01,418,weatherlink.com 1.10,2013-09-28 13:55:00,
2013-09-28 10:11:00,61.2,54.0,30.32,NNE,27,1.0,3.0,76,0.01,,,0.01,450,weatherlink.com 1.10,2013-09-28 14:11:00,
2013-09-28 10:26:00,61.8,53.0,30.32,NNE,20,4.0,7.0,74,0.00,,,0.01,482,weatherlink.com 1.10,2013-09-28 14:26:00,
2013-09-28 10:41:00,63.5,54.0,30.32,WNW,294,3.0,4.0,71,0.00,,,0.01,508,weatherlink.com 1.10,2013-09-28 14:41:00,
2013-09-28 10:56:00,64.6,54.0,30.32,ESE,115,0.0,4.0,69,0.00,,,0.01,533,weatherlink.com 1.10,2013-09-28 14:56:00,
2013-09-28 11:11:00,64.7,54.0,30.31,ENE,76,2.0,6.0,69,0.00,,,0.01,557,weatherlink.com 1.10,2013-09-28 15:11:00,
2013-09-28 11:26:00,66.0,55.0,30.31,NW,323,2.0,4.0,67,0.00,,,0.01,577,weatherlink.com 1.10,2013-09-28 15:26:00,
2013-09-28 11:41:00,67.0,54.0,30.31,NNW,337,2.0,5.0,63,0.00,,,0.01,592,weatherlink.com 1.10,2013-09-28 15:41:00,
2013-09-28 11:56:00,67.7,54.0,30.30,NE,56,1.0,5.0,62,0.00,,,0.01,606,weatherlink.com 1.10,2013-09-28 15:56:00,
2013-09-28 12:11:00,67.2,54.0,30.30,NNE,22,1.0,6.0,62,0.00,,,0.01,617,weatherlink.com 1.10,2013-09-28 16:11:00,
2013-09-28 12:26:00,68.7,54.0,30.29,NNE,16,2.0,6.0,60,0.00,,,0.01,624,weatherlink.com 1.10,2013-09-28 16:26:00,
2013-09-28 12:41:00,69.1,54.0,30.29,ESE,109,1.0,5.0,60,0.00,,,0.01,628,weatherlink.com 1.10,2013-09-28 16:41:00,
2013-09-28 12:56:00,69.5,54.0,30.28,WSW,254,3.0,5.0,59,0.00,,,0.01,629,weatherlink.com 1.10,2013-09-28 16:56:00,
2013-09-28 13:11:00,69.8,55.0,30.27,SSE,167,2.0,5.0,59,0.00,,,0.01,624,weatherlink.com 1.10,2013-09-28 17:11:00,
2013-09-28 13:26:00,70.6,55.0,30.27,WNW,288,3.0,7.0,59,0.00,,,0.01,617,weatherlink.com 1.10,2013-09-28 17:26:00,
2013-09-28 13:41:00,70.1,55.0,30.26,NNW,346,2.0,7.0,59,0.00,,,0.01,606,weatherlink.com 1.10,2013-09-28 17:41:00,
2013-09-28 13:56:00,71.0,55.0,30.25,WNW,301,2.0,7.0,58,0.00,,,0.01,594,weatherlink.com 1.10,2013-09-28 17:56:00,
2013-09-28 14:11:00,71.5,55.0,30.25,NW,318,3.0,5.0,57,0.00,,,0.01,582,weatherlink.com 1.10,2013-09-28 18:11:00,
2013-09-28 14:26:00,71.5,55.0,30.24,NW,317,3.0,7.0,56,0.00,,,0.01,564,weatherlink.com 1.10,2013-09-28 18:26:00,
2013-09-28 14:41:00,72.6,56.0,30.23,West,277,1.0,6.0,57,0.00,,,0.01,541,weatherlink.com 1.10,2013-09-28 18:41:00,
2013-09-28 14:56:00,72.7,55.0,30.23,NW,311,3.0,7.0,55,0.00,,,0.01,515,weatherlink.com 1.10,2013-09-28 18:56:00,
2013-09-28 15:26:00,72.6,55.0,30.22,NE,39,1.0,7.0,55,0.00,,,0.01,462,weatherlink.com 1.10,2013-09-28 19:26:00,
2013-09-28 15:41:00,73.5,55.0,30.22,NE,44,3.0,5.0,53,0.00,,,0.01,431,weatherlink.com 1.10,2013-09-28 19:41:00,
2013-09-28 15:56:00,73.2,55.0,30.21,ENE,59,1.0,6.0,53,0.00,,,0.01,397,weatherlink.com 1.10,2013-09-28 19:56:00,
2013-09-28 16:11:00,72.6,55.0,30.21,North,350,1.0,5.0,54,0.00,,,0.01,359,weatherlink.com 1.10,2013-09-28 20:11:00,
2013-09-28 16:27:00,73.4,55.0,30.21,NE,42,4.0,5.0,53,0.00,,,0.01,323,weatherlink.com 1.10,2013-09-28 20:27:00,
2013-09-28 16:42:00,73.5,56.0,30.21,WSW,248,1.0,4.0,54,0.00,,,0.01,285,weatherlink.com 1.10,2013-09-28 20:42:00,
2013-09-28 16:57:00,72.1,55.0,30.21,NNE,19,4.0,6.0,56,0.00,,,0.01,248,weatherlink.com 1.10,2013-09-28 20:57:00,
2013-09-28 17:12:00,72.5,56.0,30.21,NNE,15,1.0,6.0,56,0.00,,,0.01,206,weatherlink.com 1.10,2013-09-28 21:12:00,
2013-09-28 17:27:00,71.1,55.0,30.20,NE,54,6.0,7.0,58,0.00,,,0.01,165,weatherlink.com 1.10,2013-09-28 21:27:00,
2013-09-28 17:42:00,70.4,55.0,30.20,East,83,8.0,8.0,59,0.00,,,0.01,120,weatherlink.com 1.10,2013-09-28 21:42:00,
2013-09-28 17:57:00,70.2,56.0,30.20,NE,53,3.0,8.0,60,0.00,,,0.01,74,weatherlink.com 1.10,2013-09-28 21:57:00,
2013-09-28 18:12:00,69.5,56.0,30.20,East,84,3.0,9.0,62,0.00,,,0.01,39,weatherlink.com 1.10,2013-09-28 22:12:00,
2013-09-28 18:27:00,68.6,55.0,30.20,ENE,65,4.0,4.0,63,0.00,,,0.01,14,weatherlink.com 1.10,2013-09-28 22:27:00,
2013-09-28 18:42:00,67.9,56.0,30.19,NNE,33,2.0,4.0,65,0.00,,,0.01,7,weatherlink.com 1.10,2013-09-28 22:42:00,
2013-09-28 18:57:00,66.9,56.0,30.19,North,5,2.0,3.0,67,0.00,,,0.01,0,weatherlink.com 1.10,2013-09-28 22:57:00,
2013-09-28 19:12:00,65.9,55.0,30.19,North,360,2.0,3.0,68,0.00,,,0.01,0,weatherlink.com 1.10,2013-09-28 23:12:00,
2013-09-28 19:27:00,65.0,55.0,30.19,NNE,32,1.0,3.0,70,0.00,,,0.01,0,weatherlink.com 1.10,2013-09-28 23:27:00,
2013-09-28 19:42:00,64.0,54.0,30.18,NNE,13,1.0,3.0,71,0.00,,,0.01,0,weatherlink.com 1.10,2013-09-28 23:42:00,
2013-09-28 19:57:00,62.3,55.0,30.19,WSW,241,2.0,3.0,76,0.00,,,0.01,0,weatherlink.com 1.10,2013-09-28 23:57:00,
2013-09-28 20:12:00,61.4,55.0,30.19,SSW,201,2.0,2.0,78,0.00,,,0.01,0,weatherlink.com 1.10,2013-09-29 00:12:00,
2013-09-28 20:27:00,59.8,54.0,30.19,WSW,250,2.0,3.0,81,0.00,,,0.01,0,weatherlink.com 1.10,2013-09-29 00:27:00,
2013-09-28 20:42:00,60.7,54.0,30.19,North,5,1.0,2.0,79,0.00,,,0.01,0,weatherlink.com 1.10,2013-09-29 00:42:00,
2013-09-28 20:57:00,60.5,54.0,30.19,SW,236,1.0,2.0,80,0.00,,,0.01,0,weatherlink.com 1.10,2013-09-29 00:57:00,
2013-09-28 21:12:00,58.2,53.0,30.19,South,181,1.0,3.0,83,0.00,,,0.01,0,weatherlink.com 1.10,2013-09-29 01:12:00,
2013-09-28 21:27:00,56.4,53.0,30.19,South,178,2.0,3.0,87,0.00,,,0.01,0,weatherlink.com 1.10,2013-09-29 01:27:00,
2013-09-28 21:42:00,55.6,53.0,30.19,South,186,1.0,4.0,89,0.00,,,0.01,0,weatherlink.com 1.10,2013-09-29 01:42:00,
2013-09-28 21:57:00,54.8,52.0,30.18,SE,130,1.0,5.0,90,0.00,,,0.01,0,weatherlink.com 1.10,2013-09-29 01:57:00,
2013-09-28 22:12:00,54.7,52.0,30.18,SSW,201,0.0,2.0,90,0.00,,,0.01,0,weatherlink.com 1.10,2013-09-29 02:12:00,
2013-09-28 22:27:00,55.0,53.0,30.18,SSE,167,1.0,2.0,91,0.00,,,0.01,0,weatherlink.com 1.10,2013-09-29 02:27:00,
2013-09-28 22:42:00,55.2,53.0,30.18,SSE,148,1.0,3.0,91,0.00,,,0.01,0,weatherlink.com 1.10,2013-09-29 02:42:00,
2013-09-28 22:57:00,55.2,53.0,30.18,SSE,159,2.0,3.0,91,0.00,,,0.01,0,weatherlink.com 1.10,2013-09-29 02:57:00,
2013-09-28 23:12:00,55.1,53.0,30.18,SSE,157,2.0,3.0,91,0.00,,,0.01,0,weatherlink.com 1.10,2013-09-29 03:12:00,
2013-09-28 23:27:00,54.8,52.0,30.18,SSE,156,2.0,3.0,90,0.00,,,0.01,0,weatherlink.com 1.10,2013-09-29 03:27:00,
2013-09-28 23:42:00,54.9,52.0,30.18,South,169,2.0,3.0,90,0.00,,,0.01,0,weatherlink.com 1.10,2013-09-29 03:42:00,
2013-09-28 23:57:00,54.9,52.0,30.18,SSE,150,2.0,3.0,90,0.00,,,0.01,0,weatherlink.com 1.10,2013-09-29 03:57:00,